Regional Weather Roundup
Issued by NWS Northern Indiana

Home | Current Version | Previous Version | Graphics & Text | Print | Product List | Glossary On
Versions: 1 2 3 4 5 6 7 8 9 10 11 12 13 14 15 16 17 18 19 20 21 22 23 24 25 26 27 28 29 30 31 32 33 34 35 36 37 38 39 40 41 42 43 44 45 46 47 48 49 50
307
ASUS43 KIWX 221100
RWRIWX

KIWX WEATHER ROUNDUP
NATIONAL WEATHER SERVICE NORTHERN INDIANA
700 AM EDT MON MAY 22 2017

NOTE: "FAIR" INDICATES FEW OR NO CLOUDS BELOW 12,000 FEET WITH NO
SIGNIFICANT WEATHER AND/OR OBSTRUCTIONS TO VISIBILITY.

* THESE STATIONS ARE NOT UNDER NWS QUALITY CONTROL. THEY ALSO MAY NOT
  REPORT WEATHER SUCH AS PRECIPITATION OR FOG.

INZ001>027-221200-
NORTHERN INDIANA

CITY           SKY/WX    TMP DP  RH WIND       PRES   REMARKS
GARY*          PTCLDY    50  43  76 CALM      30.05R
MICHIGAN CITY* PTCLDY    46  43  87 SW6       30.05R
SOUTH BEND     PTCLDY    48  43  82 SW12      30.04R
ELKHART*       MOCLDY    50  43  76 SW10      30.03
GOSHEN         PTCLDY    50  41  71 W12       30.04R
MONTICELLO*    PTCLDY    47  44  87 SW6       30.08R
ANGOLA*        CLOUDY    50  43  76 W10       30.02R
FORT WAYNE     CLOUDY    49  43  80 SW10      30.06R
PERU/GRISSOM   CLOUDY    48  44  84 W9        30.07R

$$
INZ028>050-221200-
CENTRAL INDIANA

CITY           SKY/WX    TMP DP  RH WIND       PRES   REMARKS
LAFAYETTE      CLEAR     47  45  93 SW5       30.10R
KOKOMO*        CLOUDY    50  43  77 W10       30.09S
MUNCIE*        CLEAR     49  42  77 SW7       30.09R
INDIANAPOLIS   MOCLDY    48  43  82 W5        30.11R

$$
MIZ043>046-050>051-056>058-064>065-071>073-077>080-221200-
SOUTHWEST LOWER MICHIGAN

CITY           SKY/WX    TMP DP  RH WIND       PRES   REMARKS
BATTLE CREEK   CLOUDY    50  42  74 SW14G21   30.00R
BENTON HARBOR  CLOUDY    51  41  68 W22G29    30.02R
COLDWATER*     CLOUDY    50  44  79 SW9       30.01R
HILLSDALE*     CLOUDY    48  41  76 W10       30.00R
HOLLAND        CLOUDY    50  43  77 W16       29.98R
GRAND RAPIDS   CLOUDY    50  43  77 SW17G25   29.96R
KALAMAZOO      CLOUDY    51  41  68 SW7       30.01R
STURGIS*       CLOUDY    49  43  78 W9        30.01R
THREE RIVERS*  CLOUDY    50  42  74 W9        30.02R

$$
OHZ001>008-015>018-024>025-221200-
NORTHWEST OHIO

CITY           SKY/WX    TMP DP  RH WIND       PRES   REMARKS
DEFIANCE       MOCLDY    50  40  68 SW7       30.04R
FINDLAY        PTCLDY    49  40  71 SW10      30.04S
TOLEDO EXPRESS CLEAR     50  40  68 SW9       30.02R
TOLEDO METCALF PTCLDY    51  41  68 SW10      30.03R
LIMA           MOCLDY    49  42  77 SW9       30.07R

$$
AND FOR LAKE MICHIGAN COASTAL AND OPEN LAKE BUOY OBSERVATIONS

STATION/POSITION TEMP    WIND        PRES    VSBY  WAVE
                 AIR SEA DIR/SP/G                  HT/PER
                 (F)     (DEG/KT/KT) (MB)    (MI)  (FT/S)
CALUMET HARBOR    49     230/  4/  8 1016.5R
MICHIGAN CITY     51     230/ 20/ 22   N/A
BURNS HARBOR      51     230/ 10/ 15 1017.9R
SOUTH LAKE BUOY   47 44  250/ 14/ 16 1014.6          2/ 4
4 MI NW BRIDGMAN  52 54  260/ 17/ 21 1017.2R         4/ 5
MICHIGAN CITY     51 52  240/ 14/ 17   N/A           4/ 4

$$
&&




USA.gov is the U.S. government's official web portal to all federal, state and local government web resources and services.